QPF
0.02 0.03 0.02 0.01 0.01 0.01 0.01 0.00 0.00 0.00 0.00 0.00 0.00 0.01 0.01 0.01 0.01 0.02 0.02 0.02 0.01 0.01 0.02 0.03 0.03 0.03 0.02 0.02 0.03 0.04 0.04 0.03 0.03 0.05 0.07 0.07 0.07 0.07 0.07 0.08 0.09 0.07 0.07 0.07
0.04 0.04 0.02 0.01 0.01 0.01 0.01 0.01 0.01 0.00 0.00 0.00 0.00 0.01 0.01 0.01 0.01 0.02 0.02 0.02 0.01 0.01 0.01 0.02 0.02 0.02 0.03 0.02 0.02 0.03 0.05 0.04 0.03 0.04 0.06 0.06 0.07 0.07 0.07 0.08 0.08 0.07 0.05 0.05
0.03 0.03 0.02 0.02 0.02 0.03 0.03 0.02 0.01 0.01 0.01 0.01 0.01 0.01 0.02 0.02 0.01 0.01 0.02 0.01 0.01 0.01 0.01 0.01 0.01 0.02 0.02 0.02 0.02 0.03 0.05 0.05 0.04 0.04 0.05 0.06 0.06 0.07 0.08 0.08 0.08 0.08 0.05 0.04
0.02 0.02 0.02 0.03 0.03 0.03 0.04 0.02 0.02 0.02 0.03 0.02 0.01 0.01 0.01 0.02 0.01 0.01 0.01 0.01 0.01 0.01 0.01 0.01 0.01 0.01 0.02 0.02 0.02 0.03 0.04 0.05 0.05 0.04 0.05 0.06 0.06 0.05 0.05 0.05 0.06 0.06 0.06 0.05
0.01 0.01 0.02 0.02 0.02 0.02 0.03 0.02 0.02 0.03 0.03 0.03 0.02 0.01 0.01 0.01 0.01 0.01 0.01 0.01 0.01 0.01 0.01 0.01 0.01 0.02 0.02 0.02 0.03 0.03 0.04 0.04 0.05 0.05 0.05 0.07 0.07 0.06 0.05 0.04 0.04 0.06 0.07 0.08
0.01 0.01 0.02 0.03 0.02 0.02 0.02 0.03 0.03 0.04 0.06 0.06 0.02 0.01 0.01 0.01 0.01 0.01 0.01 0.01 0.01 0.01 0.01 0.01 0.01 0.02 0.02 0.03 0.03 0.03 0.04 0.05 0.05 0.05 0.06 0.07 0.07 0.06 0.06 0.05 0.04 0.04 0.05 0.06
0.02 0.01 0.02 0.02 0.03 0.03 0.04 0.07 0.08 0.08 0.08 0.05 0.01 0.01 0.01 0.00 0.01 0.01 0.01 0.01 0.01 0.01 0.01 0.01 0.01 0.01 0.02 0.03 0.03 0.03 0.04 0.05 0.04 0.04 0.05 0.07 0.07 0.07 0.06 0.06 0.05 0.04 0.05 0.05
0.01 0.01 0.01 0.02 0.02 0.03 0.04 0.06 0.06 0.05 0.03 0.02 0.01 0.01 0.01 0.00 0.00 0.00 0.01 0.01 0.01 0.01 0.01 0.01 0.01 0.01 0.02 0.02 0.02 0.03 0.04 0.04 0.03 0.03 0.04 0.06 0.07 0.07 0.06 0.06 0.05 0.04 0.04 0.07
0.02 0.01 0.00 0.01 0.01 0.02 0.03 0.04 0.05 0.04 0.03 0.02 0.01 0.01 0.01 0.00 0.00 0.00 0.00 0.00 0.01 0.01 0.01 0.01 0.01 0.01 0.01 0.02 0.02 0.02 0.02 0.03 0.03 0.03 0.03 0.05 0.07 0.08 0.07 0.06 0.06 0.05 0.04 0.04
0.02 0.02 0.00 0.01 0.01 0.02 0.02 0.03 0.05 0.07 0.05 0.02 0.01 0.01 0.01 0.01 0.01 0.01 0.01 0.01 0.01 0.01 0.01 0.01 0.01 0.01 0.02 0.02 0.02 0.02 0.02 0.02 0.02 0.03 0.03 0.04 0.05 0.07 0.07 0.07 0.06 0.05 0.05 0.04
0.02 0.03 0.01 0.01 0.02 0.02 0.02 0.03 0.04 0.06 0.05 0.03 0.02 0.02 0.02 0.02 0.02 0.01 0.01 0.01 0.01 0.01 0.01 0.02 0.02 0.02 0.02 0.02 0.02 0.02 0.02 0.02 0.02 0.03 0.03 0.03 0.04 0.05 0.06 0.06 0.07 0.06 0.05 0.05
0.02 0.03 0.02 0.01 0.01 0.01 0.02 0.02 0.03 0.04 0.04 0.03 0.02 0.02 0.02 0.02 0.02 0.02 0.02 0.01 0.01 0.01 0.01 0.02 0.02 0.03 0.03 0.04 0.03 0.02 0.02 0.02 0.03 0.03 0.02 0.03 0.03 0.03 0.04 0.05 0.05 0.05 0.06 0.05
0.03 0.05 0.03 0.02 0.02 0.02 0.02 0.02 0.02 0.02 0.03 0.02 0.02 0.02 0.01 0.01 0.02 0.02 0.02 0.02 0.02 0.01 0.01 0.01 0.01 0.02 0.03 0.04 0.04 0.04 0.03 0.02 0.02 0.02 0.02 0.02 0.02 0.02 0.03 0.03 0.03 0.04 0.04 0.04
0.04 0.04 0.02 0.02 0.01 0.01 0.02 0.01 0.01 0.02 0.03 0.02 0.01 0.01 0.01 0.01 0.01 0.01 0.01 0.02 0.02 0.02 0.01 0.01 0.01 0.01 0.02 0.03 0.03 0.04 0.03 0.02 0.02 0.02 0.02 0.02 0.02 0.02 0.02 0.02 0.02 0.02 0.02 0.03
0.03 0.03 0.01 0.01 0.01 0.01 0.01 0.00 0.00 0.01 0.01 0.01 0.01 0.01 0.01 0.01 0.01 0.01 0.01 0.02 0.02 0.02 0.02 0.01 0.01 0.01 0.01 0.02 0.02 0.01 0.02 0.02 0.01 0.01 0.01 0.01 0.02 0.01 0.01 0.01 0.01 0.02 0.01 0.02
0.02 0.02 0.01 0.01 0.01 0.01 0.01 0.01 0.00 0.00 0.01 0.01 0.01 0.01 0.01 0.01 0.01 0.01 0.01 0.01 0.02 0.02 0.02 0.02 0.02 0.01 0.01 0.01 0.01 0.00 0.01 0.01 0.01 0.01 0.01 0.01 0.01 0.01 0.01 0.01 0.01 0.01 0.02 0.02
0.02 0.02 0.02 0.01 0.01 0.01 0.02 0.01 0.00 0.01 0.01 0.01 0.01 0.00 0.00 0.00 0.01 0.01 0.01 0.01 0.02 0.02 0.02 0.02 0.02 0.02 0.01 0.01 0.01 0.01 0.01 0.01 0.01 0.01 0.01 0.01 0.01 0.01 0.01 0.01 0.01 0.01 0.02 0.03
0.02 0.02 0.03 0.02 0.01 0.02 0.01 0.01 0.01 0.01 0.01 0.01 0.01 0.01 0.01 0.01 0.01 0.01 0.01 0.01 0.01 0.01 0.01 0.02 0.02 0.02 0.02 0.02 0.01 0.01 0.01 0.01 0.01 0.01 0.01 0.01 0.01 0.01 0.01 0.01 0.01 0.01 0.02 0.03
0.01 0.02 0.03 0.02 0.01 0.01 0.00 0.01 0.01 0.01 0.01 0.01 0.00 0.00 0.00 0.00 0.01 0.01 0.01 0.01 0.02 0.02 0.01 0.01 0.02 0.02 0.02 0.02 0.02 0.02 0.01 0.01 0.01 0.01 0.01 0.01 0.01 0.01 0.01 0.01 0.01 0.01 0.02 0.02
0.01 0.02 0.03 0.02 0.01 0.01 0.00 0.00 0.01 0.01 0.01 0.00 0.00 0.00 0.00 0.00 0.00 0.01 0.01 0.01 0.02 0.02 0.01 0.01 0.01 0.02 0.02 0.02 0.02 0.02 0.02 0.02 0.01 0.02 0.02 0.01 0.01 0.01 0.01 0.01 0.01 0.02 0.02 0.02
0.01 0.02 0.02 0.02 0.02 0.01 0.00 0.00 0.01 0.01 0.01 0.01 0.00 0.00 0.00 0.00 0.01 0.01 0.01 0.01 0.01 0.01 0.01 0.01 0.01 0.01 0.02 0.02 0.02 0.02 0.03 0.03 0.03 0.02 0.02 0.01 0.01 0.01 0.01 0.02 0.02 0.02 0.02 0.02
0.01 0.01 0.01 0.01 0.02 0.01 0.00 0.01 0.01 0.02 0.01 0.01 0.01 0.00 0.00 0.00 0.00 0.01 0.01 0.01 0.01 0.01 0.01 0.01 0.01 0.01 0.01 0.01 0.01 0.02 0.02 0.02 0.03 0.03 0.02 0.02 0.01 0.01 0.01 0.02 0.02 0.02 0.03 0.03
0.01 0.01 0.01 0.01 0.01 0.01 0.01 0.01 0.01 0.01 0.01 0.01 0.01 0.01 0.01 0.01 0.01 0.01 0.01 0.01 0.01 0.01 0.01 0.01 0.01 0.01 0.01 0.01 0.01 0.01 0.02 0.02 0.02 0.02 0.02 0.03 0.02 0.02 0.02 0.03 0.03 0.03 0.03 0.03
0.01 0.01 0.01 0.01 0.01 0.01 0.01 0.01 0.01 0.01 0.01 0.01 0.01 0.01 0.01 0.01 0.01 0.01 0.01 0.01 0.01 0.01 0.01 0.01 0.01 0.01 0.01 0.01 0.01 0.01 0.01 0.01 0.01 0.01 0.01 0.02 0.02 0.03 0.03 0.03 0.03 0.03 0.03 0.02
0.01 0.01 0.01 0.01 0.01 0.01 0.01 0.01 0.01 0.01 0.01 0.01 0.01 0.01 0.01 0.01 0.01 0.01 0.01 0.01 0.01 0.01 0.01 0.01 0.01 0.01 0.01 0.01 0.01 0.01 0.01 0.01 0.01 0.01 0.01 0.01 0.02 0.02 0.03 0.03 0.04 0.04 0.04 0.03
0.01 0.01 0.01 0.01 0.01 0.01 0.01 0.01 0.01 0.01 0.01 0.01 0.01 0.01 0.01 0.01 0.01 0.01 0.01 0.01 0.01 0.01 0.01 0.01 0.01 0.01 0.01 0.01 0.01 0.01 0.01 0.01 0.01 0.01 0.01 0.01 0.01 0.02 0.02 0.03 0.04 0.04 0.04 0.04
MSLP
1015.86 1015.32 1014.78 1014.21 1013.58 1012.86 1012.03 1011.08 1010.04 1008.94 1007.83 1006.77 1005.81 1004.99 1004.33 1003.85 1003.53 1003.36 1003.30 1003.35 1003.47 1003.66 1003.92 1004.23 1004.60 1005.02 1005.49 1006.00 1006.53 1007.07 1007.60 1008.11 1008.59 1009.04 1009.46 1009.86 1010.25 1010.64 1011.03 1011.45 1011.88 1012.35 1012.85 1013.39
1016.68 1016.30 1015.90 1015.44 1014.86 1014.11 1013.16 1012.01 1010.68 1009.24 1007.77 1006.35 1005.07 1003.99 1003.14 1002.57 1002.23 1002.10 1002.13 1002.28 1002.50 1002.77 1003.07 1003.40 1003.77 1004.18 1004.62 1005.11 1005.64 1006.18 1006.73 1007.26 1007.76 1008.23 1008.66 1009.06 1009.45 1009.84 1010.24 1010.67 1011.13 1011.63 1012.16 1012.73
1017.72 1017.52 1017.27 1016.90 1016.34 1015.52 1014.42 1013.02 1011.37 1009.57 1007.71 1005.93 1004.34 1003.02 1002.03 1001.41 1001.11 1001.08 1001.24 1001.53 1001.88 1002.24 1002.58 1002.90 1003.21 1003.54 1003.90 1004.31 1004.77 1005.27 1005.79 1006.31 1006.82 1007.30 1007.74 1008.16 1008.56 1008.96 1009.38 1009.83 1010.32 1010.85 1011.42 1012.01
1018.82 1018.77 1018.65 1018.35 1017.78 1016.88 1015.60 1013.95 1012.00 1009.85 1007.65 1005.56 1003.72 1002.23 1001.18 1000.58 1000.38 1000.51 1000.86 1001.32 1001.80 1002.24 1002.59 1002.85 1003.06 1003.24 1003.43 1003.68 1003.99 1004.38 1004.82 1005.30 1005.79 1006.27 1006.73 1007.17 1007.60 1008.03 1008.48 1008.96 1009.48 1010.04 1010.64 1011.26
1019.80 1019.87 1019.83 1019.57 1018.98 1017.99 1016.56 1014.71 1012.51 1010.10 1007.66 1005.36 1003.37 1001.82 1000.79 1000.29 1000.25 1000.58 1001.13 1001.77 1002.38 1002.87 1003.19 1003.35 1003.38 1003.33 1003.28 1003.28 1003.37 1003.57 1003.87 1004.26 1004.70 1005.17 1005.65 1006.12 1006.59 1007.06 1007.55 1008.07 1008.62 1009.21 1009.84 1010.49
1020.49 1020.63 1020.63 1020.38 1019.77 1018.73 1017.22 1015.24 1012.91 1010.38 1007.83 1005.47 1003.46 1001.96 1001.03 1000.70 1000.86 1001.40 1002.15 1002.95 1003.65 1004.15 1004.39 1004.38 1004.17 1003.83 1003.46 1003.14 1002.94 1002.88 1002.99 1003.24 1003.61 1004.05 1004.53 1005.04 1005.55 1006.07 1006.61 1007.17 1007.76 1008.38 1009.03 1009.70
1020.82 1020.96 1020.97 1020.72 1020.11 1019.07 1017.57 1015.61 1013.30 1010.81 1008.33 1006.05 1004.16 1002.80 1002.05 1001.91 1002.27 1002.99 1003.90 1004.79 1005.53 1005.98 1006.08 1005.85 1005.34 1004.67 1003.93 1003.24 1002.69 1002.34 1002.21 1002.29 1002.55 1002.94 1003.42 1003.96 1004.52 1005.10 1005.69 1006.29 1006.91 1007.55 1008.22 1008.89
1020.80 1020.89 1020.87 1020.62 1020.06 1019.10 1017.72 1015.92 1013.81 1011.52 1009.26 1007.21 1005.55 1004.41 1003.86 1003.90 1004.42 1005.26 1006.24 1007.15 1007.83 1008.17 1008.08 1007.59 1006.76 1005.73 1004.60 1003.53 1002.62 1001.95 1001.56 1001.44 1001.57 1001.89 1002.36 1002.92 1003.52 1004.16 1004.80 1005.44 1006.09 1006.74 1007.40 1008.08
1020.52 1020.53 1020.46 1020.24 1019.77 1018.98 1017.82 1016.32 1014.54 1012.62 1010.71 1009.00 1007.63 1006.74 1006.38 1006.55 1007.14 1008.00 1008.94 1009.77 1010.32 1010.47 1010.15 1009.38 1008.24 1006.86 1005.38 1003.94 1002.69 1001.70 1001.05 1000.73 1000.72 1000.96 1001.39 1001.96 1002.60 1003.27 1003.95 1004.62 1005.28 1005.94 1006.59 1007.24
1020.14 1020.05 1019.95 1019.77 1019.43 1018.87 1018.04 1016.93 1015.60 1014.13 1012.66 1011.34 1010.29 1009.63 1009.41 1009.62 1010.18 1010.93 1011.72 1012.36 1012.70 1012.62 1012.05 1011.02 1009.61 1007.93 1006.15 1004.41 1002.86 1001.60 1000.71 1000.19 1000.03 1000.18 1000.56 1001.11 1001.76 1002.45 1003.15 1003.84 1004.50 1005.14 1005.76 1006.38
1019.84 1019.65 1019.52 1019.40 1019.23 1018.94 1018.48 1017.83 1016.98 1016.01 1015.00 1014.06 1013.30 1012.81 1012.64 1012.79 1013.19 1013.74 1014.27 1014.65 1014.72 1014.39 1013.59 1012.34 1010.72 1008.83 1006.84 1004.89 1003.12 1001.64 1000.55 999.86 999.56 999.59 999.90 1000.41 1001.03 1001.72 1002.42 1003.09 1003.73 1004.33 1004.90 1005.47
1019.75 1019.49 1019.34 1019.29 1019.29 1019.27 1019.18 1018.96 1018.59 1018.09 1017.50 1016.89 1016.35 1015.95 1015.74 1015.74 1015.90 1016.15 1016.37 1016.43 1016.22 1015.66 1014.67 1013.27 1011.53 1009.53 1007.43 1005.35 1003.45 1001.83 1000.58 999.73 999.29 999.20 999.42 999.85 1000.43 1001.08 1001.74 1002.38 1002.97 1003.52 1004.03 1004.53
1019.95 1019.63 1019.48 1019.50 1019.64 1019.87 1020.09 1020.25 1020.28 1020.17 1019.91 1019.56 1019.16 1018.77 1018.45 1018.23 1018.10 1018.00 1017.88 1017.62 1017.16 1016.39 1015.28 1013.82 1012.04 1010.04 1007.92 1005.82 1003.85 1002.14 1000.78 999.80 999.22 999.01 999.11 999.44 999.94 1000.52 1001.13 1001.71 1002.24 1002.72 1003.16 1003.58
1020.44 1020.09 1019.94 1020.00 1020.26 1020.65 1021.11 1021.55 1021.88 1022.05 1022.03 1021.84 1021.49 1021.06 1020.58 1020.11 1019.66 1019.24 1018.79 1018.26 1017.58 1016.68 1015.51 1014.05 1012.33 1010.39 1008.34 1006.28 1004.32 1002.57 1001.13 1000.05 999.34 998.99 998.96 999.18 999.57 1000.07 1000.60 1001.11 1001.57 1001.98 1002.34 1002.67
1021.17 1020.81 1020.66 1020.74 1021.05 1021.54 1022.13 1022.74 1023.25 1023.59 1023.71 1023.59 1023.24 1022.72 1022.07 1021.36 1020.64 1019.92 1019.21 1018.46 1017.63 1016.65 1015.49 1014.09 1012.47 1010.66 1008.73 1006.75 1004.83 1003.08 1001.59 1000.41 999.59 999.11 998.95 999.04 999.33 999.73 1000.18 1000.62 1001.01 1001.35 1001.63 1001.89
1022.06 1021.71 1021.55 1021.62 1021.92 1022.43 1023.06 1023.73 1024.31 1024.73 1024.89 1024.79 1024.40 1023.79 1022.99 1022.09 1021.15 1020.21 1019.30 1018.40 1017.48 1016.48 1015.35 1014.05 1012.56 1010.90 1009.09 1007.22 1005.36 1003.63 1002.10 1000.85 999.92 999.33 999.05 999.03 999.22 999.54 999.92 1000.29 1000.63 1000.90 1001.13 1001.32
1023.04 1022.71 1022.53 1022.56 1022.82 1023.28 1023.87 1024.52 1025.09 1025.50 1025.66 1025.53 1025.10 1024.40 1023.50 1022.46 1021.38 1020.30 1019.26 1018.26 1017.29 1016.30 1015.23 1014.03 1012.66 1011.12 1009.44 1007.66 1005.87 1004.16 1002.61 1001.31 1000.31 999.63 999.26 999.15 999.27 999.52 999.85 1000.18 1000.48 1000.72 1000.91 1001.06
1024.06 1023.75 1023.55 1023.53 1023.71 1024.08 1024.59 1025.15 1025.65 1026.01 1026.12 1025.96 1025.49 1024.75 1023.79 1022.68 1021.52 1020.36 1019.25 1018.21 1017.22 1016.23 1015.20 1014.07 1012.79 1011.35 1009.76 1008.06 1006.33 1004.64 1003.10 1001.77 1000.73 1000.00 999.57 999.42 999.50 999.72 1000.03 1000.35 1000.64 1000.87 1001.04 1001.16
1025.08 1024.79 1024.58 1024.51 1024.60 1024.87 1025.26 1025.71 1026.12 1026.40 1026.47 1026.26 1025.77 1025.02 1024.04 1022.91 1021.72 1020.53 1019.39 1018.32 1017.31 1016.32 1015.30 1014.20 1012.97 1011.58 1010.05 1008.41 1006.73 1005.08 1003.56 1002.24 1001.20 1000.46 1000.03 999.87 999.94 1000.17 1000.49 1000.83 1001.13 1001.37 1001.55 1001.66
1026.09 1025.83 1025.61 1025.49 1025.51 1025.67 1025.95 1026.29 1026.61 1026.81 1026.82 1026.58 1026.08 1025.33 1024.37 1023.25 1022.06 1020.86 1019.71 1018.61 1017.57 1016.56 1015.52 1014.41 1013.19 1011.82 1010.33 1008.74 1007.10 1005.50 1004.03 1002.77 1001.77 1001.06 1000.66 1000.53 1000.63 1000.89 1001.24 1001.60 1001.94 1002.21 1002.40 1002.54
1027.06 1026.83 1026.61 1026.46 1026.43 1026.51 1026.70 1026.93 1027.15 1027.27 1027.23 1026.97 1026.47 1025.74 1024.80 1023.71 1022.54 1021.35 1020.18 1019.06 1017.98 1016.92 1015.85 1014.71 1013.47 1012.11 1010.65 1009.10 1007.52 1006.00 1004.61 1003.42 1002.49 1001.85 1001.50 1001.42 1001.56 1001.86 1002.25 1002.65 1003.02 1003.32 1003.55 1003.71
1027.95 1027.76 1027.56 1027.41 1027.34 1027.36 1027.47 1027.62 1027.76 1027.81 1027.72 1027.43 1026.93 1026.21 1025.30 1024.24 1023.10 1021.92 1020.75 1019.61 1018.49 1017.39 1016.28 1015.11 1013.86 1012.51 1011.08 1009.58 1008.09 1006.65 1005.36 1004.26 1003.42 1002.86 1002.58 1002.56 1002.74 1003.07 1003.48 1003.90 1004.30 1004.63 1004.90 1005.10
1028.74 1028.59 1028.42 1028.28 1028.19 1028.17 1028.22 1028.30 1028.36 1028.35 1028.21 1027.90 1027.39 1026.69 1025.81 1024.79 1023.68 1022.53 1021.37 1020.22 1019.09 1017.97 1016.83 1015.65 1014.41 1013.09 1011.70 1010.29 1008.89 1007.56 1006.37 1005.38 1004.63 1004.14 1003.91 1003.91 1004.11 1004.45 1004.87 1005.30 1005.70 1006.06 1006.35 1006.58
1029.36 1029.26 1029.14 1029.01 1028.92 1028.88 1028.89 1028.91 1028.91 1028.84 1028.65 1028.31 1027.80 1027.12 1026.28 1025.30 1024.24 1023.13 1022.01 1020.89 1019.78 1018.67 1017.54 1016.38 1015.18 1013.91 1012.60 1011.28 1009.98 1008.76 1007.68 1006.78 1006.10 1005.66 1005.45 1005.46 1005.65 1005.96 1006.35 1006.76 1007.16 1007.52 1007.83 1008.10
1029.80 1029.76 1029.67 1029.58 1029.50 1029.44 1029.42 1029.39 1029.33 1029.21 1028.99 1028.63 1028.12 1027.47 1026.67 1025.76 1024.77 1023.74 1022.68 1021.62 1020.57 1019.51 1018.45 1017.35 1016.21 1015.02 1013.81 1012.58 1011.39 1010.27 1009.27 1008.44 1007.80 1007.38 1007.16 1007.14 1007.28 1007.54 1007.88 1008.25 1008.62 1008.97 1009.30 1009.60
1030.06 1030.06 1030.02 1029.96 1029.90 1029.84 1029.79 1029.73 1029.64 1029.48 1029.23 1028.86 1028.37 1027.76 1027.03 1026.20 1025.31 1024.38 1023.43 1022.47 1021.51 1020.54 1019.56 1018.55 1017.50 1016.41 1015.29 1014.16 1013.06 1012.02 1011.09 1010.30 1009.67 1009.23 1008.98 1008.90 1008.97 1009.15 1009.42 1009.74 1010.08 1010.42 1010.75 1011.09
Thickness
5518 5519 5520 5520 5517 5521 5524 5526 5529 5529 5519 5516 5521 5524 5525 5522 5519 5522 5525 5526 5528 5529 5528 5528 5530 5531 5531 5532 5533 5535 5537 5539 5540 5543 5545 5547 5546 5548 5550 5552 5553 5555 5557 5558
5507 5503 5502 5499 5499 5501 5505 5506 5511 5510 5503 5502 5507 5511 5515 5513 5511 5513 5515 5517 5518 5518 5517 5517 5519 5520 5521 5522 5524 5525 5527 5529 5530 5533 5535 5536 5536 5537 5539 5541 5543 5544 5545 5547
5490 5484 5481 5483 5484 5486 5489 5492 5494 5491 5488 5488 5491 5505 5506 5505 5501 5501 5501 5504 5506 5506 5507 5508 5508 5510 5510 5511 5513 5515 5517 5518 5520 5521 5523 5525 5526 5527 5528 5530 5531 5531 5534 5535
5471 5467 5466 5468 5467 5468 5477 5474 5474 5472 5476 5485 5482 5499 5505 5498 5493 5491 5492 5492 5494 5494 5495 5496 5497 5498 5500 5501 5501 5503 5506 5507 5509 5510 5513 5516 5518 5520 5520 5519 5520 5520 5521 5523
5453 5450 5451 5452 5452 5451 5455 5456 5457 5459 5462 5466 5469 5473 5499 5482 5483 5483 5482 5481 5481 5482 5482 5483 5485 5487 5487 5488 5490 5492 5494 5496 5497 5500 5502 5504 5507 5509 5508 5507 5509 5509 5509 5510
5435 5433 5433 5434 5435 5436 5437 5441 5443 5446 5452 5457 5463 5467 5486 5474 5470 5470 5469 5468 5468 5467 5468 5471 5473 5473 5475 5476 5478 5480 5482 5484 5486 5489 5491 5493 5495 5496 5496 5497 5498 5498 5497 5498
5427 5423 5420 5421 5424 5426 5426 5432 5441 5448 5452 5461 5446 5450 5462 5454 5449 5450 5452 5452 5452 5453 5455 5458 5460 5461 5463 5464 5466 5468 5471 5473 5475 5477 5479 5480 5482 5483 5485 5486 5486 5487 5487 5487
5419 5421 5411 5408 5408 5411 5412 5417 5428 5439 5451 5456 5433 5443 5448 5429 5429 5429 5431 5433 5435 5438 5441 5443 5446 5448 5451 5452 5453 5456 5460 5462 5463 5465 5466 5467 5468 5470 5472 5474 5474 5475 5476 5477
5407 5408 5399 5395 5396 5398 5402 5406 5401 5407 5408 5419 5438 5434 5431 5420 5417 5417 5418 5420 5421 5423 5425 5429 5432 5435 5437 5439 5441 5445 5447 5449 5450 5451 5453 5454 5456 5458 5460 5461 5462 5463 5464 5465
5389 5387 5389 5386 5388 5385 5386 5388 5390 5397 5409 5424 5430 5428 5431 5414 5410 5409 5407 5408 5408 5409 5412 5414 5417 5420 5423 5425 5428 5431 5434 5436 5437 5438 5440 5442 5444 5445 5447 5449 5449 5451 5451 5452
5375 5375 5378 5378 5374 5377 5373 5372 5376 5384 5386 5407 5420 5425 5407 5402 5399 5396 5395 5394 5393 5395 5398 5400 5403 5405 5408 5411 5414 5418 5420 5422 5424 5425 5427 5428 5430 5432 5434 5436 5437 5439 5439 5440
5364 5368 5370 5370 5364 5360 5361 5363 5365 5374 5374 5375 5394 5406 5385 5383 5382 5381 5380 5381 5381 5382 5383 5385 5388 5390 5393 5396 5400 5403 5407 5409 5411 5412 5414 5415 5417 5418 5421 5423 5424 5425 5426 5427
5353 5355 5365 5371 5362 5351 5348 5348 5344 5346 5356 5366 5379 5393 5372 5367 5366 5366 5367 5369 5369 5369 5371 5373 5375 5377 5380 5383 5386 5389 5393 5396 5397 5399 5401 5402 5404 5405 5408 5409 5410 5412 5414 5415
5349 5347 5354 5367 5369 5355 5345 5340 5335 5337 5352 5360 5364 5372 5369 5362 5359 5359 5357 5356 5356 5357 5357 5359 5361 5365 5367 5370 5373 5376 5379 5382 5384 5385 5387 5389 5391 5393 5395 5396 5397 5399 5401 5402
5341 5343 5338 5341 5340 5337 5336 5335 5330 5329 5342 5347 5356 5351 5356 5349 5345 5345 5343 5342 5344 5345 5346 5347 5349 5351 5354 5356 5359 5362 5365 5368 5371 5373 5375 5377 5378 5380 5381 5382 5384 5386 5387 5389
5327 5330 5324 5327 5329 5325 5326 5330 5327 5325 5328 5330 5333 5338 5336 5332 5329 5330 5331 5331 5332 5334 5334 5335 5337 5339 5341 5343 5346 5349 5352 5355 5358 5361 5363 5364 5366 5367 5368 5369 5371 5373 5374 5376
5319 5315 5321 5334 5317 5317 5331 5325 5319 5319 5314 5317 5327 5330 5321 5321 5318 5318 5319 5319 5319 5320 5321 5321 5324 5325 5328 5330 5333 5337 5340 5343 5345 5348 5350 5352 5353 5355 5355 5357 5358 5360 5362 5363
5307 5308 5313 5321 5314 5319 5333 5307 5307 5306 5302 5299 5302 5306 5306 5304 5302 5302 5303 5304 5305 5307 5308 5310 5312 5314 5317 5319 5321 5324 5327 5331 5333 5335 5337 5339 5340 5342 5342 5344 5346 5348 5349 5351
5303 5304 5309 5312 5318 5326 5319 5301 5293 5293 5299 5292 5291 5292 5291 5289 5295 5300 5294 5292 5292 5294 5296 5298 5300 5303 5305 5308 5310 5313 5317 5319 5321 5323 5325 5327 5328 5330 5331 5332 5334 5335 5337 5338
5289 5291 5301 5301 5309 5317 5319 5292 5279 5282 5297 5287 5280 5279 5278 5280 5298 5301 5285 5282 5282 5283 5285 5287 5290 5292 5295 5297 5299 5303 5306 5308 5310 5311 5313 5314 5316 5318 5319 5320 5321 5322 5323 5325
5286 5287 5289 5295 5300 5310 5292 5275 5274 5290 5297 5279 5273 5270 5268 5271 5277 5275 5271 5272 5273 5274 5275 5277 5279 5282 5284 5286 5288 5291 5294 5296 5298 5299 5300 5302 5304 5306 5307 5308 5309 5310 5311 5312
5289 5290 5283 5285 5292 5300 5274 5268 5274 5279 5269 5265 5263 5260 5258 5259 5260 5260 5261 5262 5263 5264 5266 5268 5270 5272 5273 5275 5277 5281 5283 5284 5285 5287 5289 5290 5292 5293 5295 5296 5296 5297 5298 5299
5276 5280 5284 5282 5289 5275 5262 5262 5258 5254 5255 5256 5255 5252 5249 5249 5251 5252 5252 5253 5253 5255 5256 5257 5259 5261 5263 5264 5266 5269 5270 5272 5274 5275 5276 5278 5279 5280 5281 5283 5284 5285 5286 5287
5266 5253 5261 5263 5270 5262 5256 5251 5248 5245 5245 5245 5244 5243 5242 5241 5242 5243 5244 5244 5245 5245 5246 5247 5248 5250 5253 5253 5255 5256 5258 5259 5261 5263 5264 5265 5267 5268 5269 5270 5272 5273 5274 5276
5265 5249 5252 5256 5258 5253 5252 5248 5245 5241 5238 5236 5235 5234 5233 5233 5234 5235 5235 5236 5236 5236 5237 5237 5237 5239 5241 5242 5244 5245 5246 5248 5250 5251 5252 5253 5255 5256 5257 5258 5259 5261 5262 5264
5252 5248 5254 5265 5256 5250 5251 5244 5238 5234 5233 5230 5228 5228 5227 5225 5225 5226 5226 5226 5226 5226 5227 5227 5228 5229 5230 5231 5232 5234 5234 5236 5238 5240 5241 5242 5242 5243 5244 5246 5247 5247 5249 5250